Location: Newark
(7.0858°N, 171.3717°E)
Time: 16:54:08
(UTC+00:00)

Hubble Space Telescope - Pass Details

Date: 30 September 2021
Orbit: 535 x 538 km, 28.5° (Epoch: 17 October)

Event Time Altitude Azimuth Distance (km) Brightness Sun altitude
Exits shadow 17:44:20 - 222° (SW) 2,369 3.7 -10.3°
Reaches altitude 10° 17:45:56 10° 215° (SW) 1,779 3.1 -9.9°
Maximum altitude 17:49:42 34° 149° (SSE) 888 2.2 -9.0°
Drops below altitude 10° 17:53:26 10° 84° (E) 1,776 5.1 -8.0°
Sets 17:55:50 0° 74° (ENE) 2,665 6.0 -7.4°
